Regional Weather Roundup
Issued by NWS Boston, MA

Current Version | Previous Version | Text Only | Print | Product List | Glossary Off
Versions: 1 2 3 4 5 6 7 8 9 10 11 12 13 14 15 16 17 18 19 20 21 22 23 24 25 26 27 28 29 30 31 32 33 34 35 36 37 38 39 40 41 42 43 44 45 46 47 48 49 50
000 ASUS41 KBOX 222210 RWRBOX REGIONAL WEATHER ROUNDUP NATIONAL WEATHER SERVICE TAUNTON MA 600 PM EDT THU JUN 22 2017 NOTE: "FAIR" INDICATES FEW OR NO CLOUDS BELOW 12,000 FEET WITH NO SIGNIFICANT WEATHER AND/OR OBSTRUCTIONS TO VISIBILITY. MAZALL-222300- EASTERN MASSACHUSETTS CITY SKY/WX TMP DP RH WIND PRES REMARKS BOSTON PTSUNNY 82 52 35 W10 29.86F BEVERLY CLOUDY 75 59 57 SE6 29.86F LAWRENCE PTSUNNY 83 54 36 W9 29.88F BEDFORD PTSUNNY 80 49 33 W7 29.86F BLUE HILL N/A 79 52 38 W8 29.88F NORWOOD MOSUNNY 82 54 37 SW7 29.86F MARSHFIELD MOSUNNY 81 55 41 VRB5 29.86F PLYMOUTH SUNNY 79 56 45 SW13 29.89F TAUNTON SUNNY 79 57 46 S12G20 29.88F NEW BEDFORD SUNNY 74 55 51 SW18G30 29.90S $$ MAZALL-222300- CAPE COD AND THE ISLANDS CITY SKY/WX TMP DP RH WIND PRES REMARKS FALMOUTH SUNNY 73 54 49 SW17 29.93R HYANNIS SUNNY 73 57 57 SW16 29.90F CHATHAM SUNNY 70 59 68 VRB5G16 29.93F PROVINCETOWN MOSUNNY 74 58 57 S15 29.90 NANTUCKET SUNNY 67 57 70 SW12 29.94S MARTHAS VNYRD SUNNY 72 56 57 SW14G21 29.93F $$ MAZALL-222300- CENTRAL AND WESTERN MASSACHUSETTS CITY SKY/WX TMP DP RH WIND PRES REMARKS WORCESTER SUNNY 77 49 37 W7 29.92F FITCHBURG MOSUNNY 82 52 35 W6 29.89F ORANGE CLOUDY 79 53 40 W5 29.89F SPRINGFIELD PTSUNNY 82 53 36 W9 29.86F WESTFIELD MOSUNNY 81 55 40 SW7 29.88F NORTH ADAMS MOSUNNY 77 55 46 W6 29.88F PITTSFIELD MOSUNNY 76 54 46 SW8 29.90F $$ RIZALL-222300- RHODE ISLAND CITY SKY/WX TMP DP RH WIND PRES REMARKS PROVIDENCE MOSUNNY 81 59 47 SW14 29.89F NEWPORT SUNNY 71 57 61 SW10G21 29.92S BLOCK ISLAND SUNNY 71 54 54 SW15 29.94F WESTERLY SUNNY 75 55 49 SW9 29.94S $$ CTZALL-222300- CONNECTICUT CITY SKY/WX TMP DP RH WIND PRES REMARKS BRADLEY INTL PTSUNNY 82 56 40 SW12 29.88F HARTFORD MOSUNNY 83 57 41 W6 29.89S BRIDGEPORT SUNNY 80 59 48 S14 29.90F DANBURY MOSUNNY 80 62 54 S8 29.92S GROTON SUNNY 71 59 65 SW8 29.92S NEW HAVEN SUNNY 75 61 60 S10 29.91F CHESTER FAIR 77 59 53 S12 29.93S MERIDEN MOSUNNY 80 60 50 S13 29.90S WILLIMANTIC SUNNY 84 53 34 W10G18 29.90S OXFORD MOSUNNY 79 57 47 SW12 29.95F $$ MEZ002-015-021-024-NHZ003-005-008-011-012-014-VTZ005-008-222300- NORTHERN NEW ENGLAND CITY SKY/WX TMP DP RH WIND PRES REMARKS PORTLAND ME CLOUDY 79 50 36 W12 29.85F BANGOR ME CLOUDY 74 49 41 W5 29.82F CONCORD NH CLOUDY 79 53 40 W10 29.87F MANCHESTER NH CLOUDY 80 48 32 W9 29.86F NASHUA NH NOT AVBL PORTSMOUTH NH PTSUNNY 74 58 57 SE9 29.85F JAFFREY NH CLOUDY 77 53 43 W5 29.91F KEENE NH CLOUDY 77 54 44 CALM 29.89F BURLINGTON VT CLOUDY 78 55 44 VRB5 29.85S MT. WASHINGTON PTSUNNY 48 41 76 W35 N/A $$ NYZ052-076-222300- EASTERN NEW YORK CITY SKY/WX TMP DP RH WIND PRES REMARKS ALBANY CLOUDY 79 57 46 SW3 29.87F NEW YORK CITY PTSUNNY 81 55 40 S17G25 29.89F $$ ANZALL-222300- MARINE OBSERVATIONS STATION/POSITION TIME TEMP WIND PRES VSBY WAVE AIR SEA DIR/SP/G HT/PER (UTC) (F) (DEG/KT/KT) (MB) (MI) (FT/S) BOSTON BUOY 2050 65 59 120/ 10/ 12 1012.1 1/ 6 BUZZARDS BAY 2100 65 220/ 19/ 20 1013.5F NANTUCKET SOUND 2150 66 1013.1F 1/ 2 MASS BAY-STELLWA 2104 66 63 150/ 12/ 14 1011.6F ISLE OF SHOALS 2100 66 160/ 19/ 20 1011.6R S OF BLOCK IS 2155 64 N/A 3/ 6 $$ ......................KEY......................... SKY/WX - SKY CONDITION/PRESENT WEATHER TMP - TEMPERATURE IN FAHRENHEIT DWPT - DEWPOINT IN FAHRENHEIT RH - RELATIVE HUMIDITY IN PERCENT WIND - DIRECTION AND SPEED IN MPH PRES - MEAN SEA LEVEL PRESSURE IN INCHES OF HG WCI - WIND CHILL INDEX VSB - VISIBILITY IN MILES HX - HEAT INDEX TC - TEMPERATURE IN CELSIUS VRB - VARIABLE WIND DIRECTION N/A - NOT AVAILABLE

USA.gov is the U.S. government's official web portal to all federal, state and local government web resources and services.